Weather History for KHKA - October, 2012

Change the Weather History Date:

Friday, October 5, 2012

  Actual Average Record
Temperature  
Mean Temperature 62 °F -  
Max Temperature 80 °F 79 °F 95 °F (1938)
Min Temperature 44 °F 53 °F 34 °F (1999)
Degree Days  
Heating Degree Days 3    
Growing Degree Days 12 (Base 50)    
Moisture  
Dew Point 53 °F    
Average Humidity 86    
Maximum Humidity 94    
Minimum Humidity 54    
Precipitation  
Precipitation 1.01 in - - ()
Sea Level Pressure  
Sea Level Pressure 30.09 in    
Wind  
Wind Speed 11 mph (North)    
Max Wind Speed 29 mph    
Max Gust Speed 37 mph    
Visibility 8 miles    
Events Rain , Thunderstorm    
Averages and records for this station are not official NWS values.
T = Trace of Precipitation, MM = Missing Value Source: NWS Daily Summary

Daily Weather History Graph

Daily Weather History Graph

Search for Another Location

Airport or City:

Trip Planner

Search our weather history database for the weather conditions in past years. The results will help you decide how hot, cold, wet, or windy it might be!

Date:

Astronomy

Oct. 05, 2012 Rise Set
Actual Time 6:58 AM CDT 6:36 PM CDT
Civil Twilight 6:32 AM CDT 7:02 PM CDT
Nautical Twilight 6:02 AM CDT 7:31 PM CDT
Astronomical Twilight 5:32 AM CDT 8:01 PM CDT
Moon 10:08 PM CDT (10/5) 11:56 AM CDT (10/5)
Length of Visible Light 12h 29m
Length of Day
11h 38m
Waning Gibbous, 74% of the Moon is Illuminated
Oct 5
Waning Gibbous
Oct 8
Last Quarter
Oct 15
New
Oct 21
First Quarter
Oct 29
Full

Hourly Weather History & Observations

Time (CDT) Temp. Windchill Dew Point Humidity Pressure Visibility Wind Dir Wind Speed Gust Speed Precip Events Conditions
12:53 AM 64.0 °F - 57.9 °F 80% 30.16 in 10.0 mi South 4.6 mph - N/A   Clear
1:53 AM 63.0 °F - 57.9 °F 84% 30.15 in 10.0 mi South 4.6 mph - N/A   Clear
3:53 AM 62.1 °F - 57.9 °F 86% 30.13 in 10.0 mi South 4.6 mph - N/A   Clear
4:53 AM 62.1 °F - 57.9 °F 86% 30.13 in 10.0 mi South 5.8 mph - N/A   Clear
5:53 AM 62.1 °F - 59.0 °F 90% 30.10 in 10.0 mi South 10.4 mph - N/A   Clear
6:53 AM 57.9 °F - 55.9 °F 93% 30.13 in 6.0 mi NW 3.5 mph - N/A   Clear
7:53 AM 61.0 °F - 59.0 °F 93% 30.12 in 5.0 mi Calm Calm - N/A   Clear
8:53 AM 66.9 °F - 62.1 °F 84% 30.13 in 10.0 mi Calm Calm - N/A   Scattered Clouds
9:53 AM 71.1 °F - 64.0 °F 78% 30.13 in 10.0 mi West 4.6 mph - N/A   Mostly Cloudy
10:53 AM 75.0 °F - 63.0 °F 66% 30.10 in 10.0 mi Calm Calm - N/A   Partly Cloudy
12:53 PM 79.0 °F - 61.0 °F 54% 30.05 in 10.0 mi SW 15.0 mph 23.0 mph N/A   Mostly Cloudy
1:53 PM 80.1 °F - 62.1 °F 54% 30.01 in 10.0 mi SW 12.7 mph 19.6 mph N/A   Mostly Cloudy
2:53 PM 78.1 °F - 62.1 °F 58% 29.99 in 10.0 mi SSW 13.8 mph 19.6 mph N/A   Partly Cloudy
3:53 PM 75.9 °F - 64.0 °F 67% 29.95 in 10.0 mi South 9.2 mph - 0.00 in Rain Light Rain
4:38 PM 69.8 °F - 64.4 °F 83% 29.98 in 10.0 mi NNW 12.7 mph 21.9 mph 0.01 in Rain , Thunderstorm Light Rain
4:53 PM 66.0 °F - 62.1 °F 87% 29.98 in 10.0 mi NNE 8.1 mph - 0.01 in Rain , Thunderstorm Light Thunderstorms and Rain
5:11 PM 64.4 °F - 62.6 °F 94% 29.97 in 9.0 mi North 8.1 mph - 0.01 in Rain , Thunderstorm Light Rain
5:32 PM 62.6 °F - 59.0 °F 88% 29.98 in 8.0 mi North 13.8 mph 28.8 mph 0.04 in Rain Rain
5:53 PM 59.0 °F - 55.9 °F 90% 29.98 in 10.0 mi North 15.0 mph - 0.05 in   Overcast
6:03 PM 57.2 °F - 53.6 °F 88% 30.01 in 10.0 mi North 20.7 mph 33.4 mph 0.00 in Rain , Thunderstorm Light Rain
6:41 PM 51.8 °F - 50.0 °F 94% 30.05 in 8.0 mi North 24.2 mph 36.8 mph 0.03 in Rain , Thunderstorm Rain
6:53 PM 52.0 °F - 50.0 °F 93% 30.04 in 8.0 mi North 26.5 mph 35.7 mph 0.05 in Rain , Thunderstorm Thunderstorms and Rain
7:04 PM 51.8 °F - 48.2 °F 88% 30.04 in 4.0 mi North 23.0 mph 32.2 mph 0.10 in Rain , Thunderstorm Heavy Thunderstorms and Rain
7:35 PM 48.2 °F - 46.4 °F 93% 30.10 in 5.0 mi North 21.9 mph 27.6 mph 0.32 in Rain , Thunderstorm Heavy Thunderstorms and Rain
7:47 PM 48.2 °F - 46.4 °F 93% 30.08 in 2.5 mi NNE 28.8 mph 35.7 mph 0.42 in Rain , Thunderstorm Heavy Thunderstorms and Rain
7:51 PM 48.2 °F - 46.4 °F 93% 30.08 in 1.8 mi NNE 26.5 mph 35.7 mph 0.48 in Rain , Thunderstorm Heavy Rain
7:53 PM 48.0 °F - 46.0 °F 93% 30.08 in 1.5 mi NNE 25.3 mph 35.7 mph 0.52 in Rain , Thunderstorm Heavy Rain
8:02 PM 48.2 °F - 46.4 °F 93% 30.12 in 3.0 mi North 17.3 mph 28.8 mph 0.10 in Rain , Thunderstorm Thunderstorms and Rain
8:46 PM 48.2 °F - 46.4 °F 93% 30.12 in 10.0 mi North 17.3 mph - 0.25 in Rain Light Rain
8:53 PM 48.0 °F - 46.0 °F 93% 30.12 in 10.0 mi NNE 15.0 mph 26.5 mph 0.26 in   Overcast
9:08 PM 48.2 °F - 44.6 °F 87% 30.12 in 10.0 mi NNE 20.7 mph 31.1 mph 0.01 in   Overcast
9:46 PM 46.4 °F 39.5 °F 44.6 °F 93% 30.14 in 10.0 mi North 17.3 mph 24.2 mph 0.03 in Rain Light Rain
9:53 PM 46.9 °F - 44.1 °F 90% 30.15 in 9.0 mi North 16.1 mph 27.6 mph 0.03 in Rain Rain
10:29 PM 44.6 °F 37.2 °F 42.8 °F 93% 30.16 in 10.0 mi North 17.3 mph 24.2 mph 0.03 in Rain Light Rain
10:38 PM 44.6 °F 36.6 °F 42.8 °F 93% 30.16 in 10.0 mi North 19.6 mph 26.5 mph 0.04 in Rain , Thunderstorm Light Rain
10:53 PM 45.0 °F 37.6 °F 42.1 °F 90% 30.16 in 7.0 mi North 17.3 mph 28.8 mph 0.05 in Rain , Thunderstorm Rain
11:07 PM 44.6 °F 38.1 °F 42.8 °F 93% 30.17 in 8.0 mi North 13.8 mph 25.3 mph 0.01 in Rain Light Rain
11:30 PM 44.6 °F 37.8 °F 42.8 °F 93% 30.17 in 10.0 mi North 15.0 mph - 0.03 in Rain Light Rain
11:38 PM 44.6 °F 37.8 °F 42.8 °F 93% 30.17 in 10.0 mi North 15.0 mph - 0.03 in   Overcast
11:53 PM 45.0 °F 38.5 °F 43.0 °F 93% 30.18 in 10.0 mi North 13.8 mph - 0.04 in   Overcast